PA3DZX-13 Weather Reports


time (UTC)temp
C
wind
direction
speed
KPH
gust
KPH
rain 1hr
cm
rain 24hr
cm
rain mn
cm
humidity
%
barometer
mb
20260510122707 16 2 17.7 24.1 0.00 0.00 0.00 56 1013.3
20260510121206 16 353 12.9 24.1 0.00 0.00 0.00 60 1013.4
20260510115705 15 0 12.9 24.1 0.00 0.00 0.00 59 1013.5
20260510114204 15 338 12.9 24.1 0.00 0.00 0.00 63 1013.8
20260510112704 15 352 12.9 20.9 0.00 0.00 0.00 63 1013.9
20260510111202 15 1 12.9 24.1 0.00 0.00 0.00 65 1013.9
20260510105703 15 0 9.7 24.1 0.00 0.00 0.00 66 1013.9
20260510104202 15 352 12.9 20.9 0.00 0.00 0.00 69 1014.2
20260510102702 15 346 9.7 17.7 0.00 0.00 0.00 70 1014.3
20260510101201 15 352 12.9 24.1 0.00 0.00 0.00 67 1014.3
20260510095702 15 5 12.9 24.1 0.00 0.00 0.00 69 1014.4
20260510094200 15 12 9.7 17.7 0.00 0.00 0.00 70 1014.6
20260510092700 15 10 9.7 24.1 0.00 0.00 0.00 71 1014.6
20260510091200 15 9 17.7 24.1 0.00 0.00 0.00 69 1014.5
20260510085700 15 359 12.9 24.1 0.00 0.00 0.00 71 1014.5
20260510084159 13 353 9.7 17.7 0.00 0.00 0.00 76 1014.6
20260510082659 12 355 9.7 17.7 0.00 0.00 0.00 77 1014.6
20260510081158 12 343 9.7 12.9 0.00 0.00 0.00 81 1014.7
20260510075659 12 329 6.4 12.9 0.00 0.00 0.00 81 1014.7
20260510074158 11 320 6.4 6.4 0.00 0.00 0.00 86 1014.7
20260510072658 10 328 3.2 6.4 0.00 0.00 0.00 88 1014.8
20260510071158 10 345 3.2 6.4 0.00 0.00 0.00 92 1014.9
20260510065658 8 351 3.2 6.4 0.00 0.00 0.00 93 1014.8
20260510064157 7 334 3.2 9.7 0.00 0.00 0.00 97 1015.0
20260510062657 7 331 3.2 9.7 0.00 0.00 0.00 98 1015.0
20260510061156 7 345 3.2 9.7 0.00 0.00 0.00 99 1014.9
20260510055656 6 332 6.4 9.7 0.00 0.00 0.00 99 1014.9
20260510054155 6 355 0.0 3.2 0.00 0.00 0.00 99 1014.8
20260510052655 5 350 0.0 0.0 0.00 0.00 0.00 99 1014.9
20260510051154 5 279 0.0 0.0 0.00 0.00 0.00 99 1014.9
20260510045654 3 279 0.0 0.0 0.00 0.00 0.00 99 1014.9
20260510044154 3 279 0.0 0.0 0.00 0.00 0.00 99 1014.8
20260510042654 3 279 0.0 0.0 0.00 0.00 0.00 99 1014.8
20260510041153 3 279 0.0 3.2 0.00 0.00 0.00 99 1014.8
20260510035653 2 279 0.0 3.2 0.00 0.00 0.00 99 1014.9
20260510034153 2 81 0.0 0.0 0.00 0.00 0.00 99 1014.9
20260510032653 2 81 0.0 0.0 0.00 0.00 0.00 99 1015.0
20260510031153 3 81 0.0 0.0 0.00 0.00 0.00 99 1015.0
20260510025653 2 81 0.0 0.0 0.00 0.00 0.00 98 1015.1
20260510024153 3 81 0.0 0.0 0.00 0.00 0.00 99 1015.1
20260510022653 3 81 0.0 0.0 0.00 0.00 0.00 99 1015.1
20260510021153 3 81 0.0 0.0 0.00 0.00 0.00 99 1015.2
20260510015653 3 81 0.0 0.0 0.00 0.00 0.00 99 1015.2
20260510014153 5 81 0.0 0.0 0.00 0.00 0.00 99 1015.3
20260510012653 5 81 0.0 0.0 0.00 0.00 0.00 99 1015.2
20260510011153 5 81 0.0 0.0 0.00 0.00 0.00 99 1015.3
20260510005653 5 81 0.0 0.0 0.00 0.00 0.00 99 1015.4
20260510004153 5 81 0.0 0.0 0.00 0.00 0.00 99 1015.5
20260510002652 5 81 0.0 0.0 0.00 0.00 0.00 99 1015.6
20260510001152 5 81 0.0 3.2 0.00 0.00 0.00 99 1015.8
20260509235652 5 80 0.0 3.2 0.00 0.00 0.00 99 1015.9
20260509234153 5 80 0.0 3.2 0.00 0.00 0.00 99 1015.9
20260509232653 5 80 0.0 3.2 0.00 0.00 0.00 98 1016.0
20260509231151 5 81 0.0 3.2 0.00 0.00 0.00 98 1016.2
20260509225652 5 81 0.0 3.2 0.00 0.00 0.00 98 1016.3
20260509224151 6 81 0.0 3.2 0.00 0.00 0.00 96 1016.4
20260509222650 5 81 0.0 3.2 0.00 0.00 0.00 95 1016.3
20260509221151 7 313 0.0 0.0 0.00 0.00 0.00 94 1016.4
20260509215651 7 314 0.0 0.0 0.00 0.00 0.00 93 1016.3
20260509214150 8 313 0.0 0.0 0.00 0.00 0.00 87 1016.4
20260509212650 8 313 0.0 0.0 0.00 0.00 0.00 90 1016.5
20260509211149 10 313 0.0 0.0 0.00 0.00 0.00 85 1016.6
20260509205650 10 313 0.0 0.0 0.00 0.00 0.00 81 1016.8
20260509204149 10 313 0.0 0.0 0.00 0.00 0.00 80 1016.8
20260509202649 10 313 0.0 0.0 0.00 0.00 0.00 79 1016.8
20260509201149 11 313 0.0 0.0 0.00 0.00 0.00 72 1016.7
20260509195649 11 313 0.0 3.2 0.00 0.00 0.00 69 1016.4
20260509194148 12 314 3.2 6.4 0.00 0.00 0.00 64 1016.4
20260509192648 15 320 3.2 6.4 0.00 0.00 0.00 57 1016.4
20260509191147 15 330 6.4 9.7 0.00 0.00 0.00 53 1016.3
20260509185647 16 316 3.2 6.4 0.00 0.00 0.00 51 1016.3
20260509184146 16 327 3.2 9.7 0.00 0.00 0.00 50 1016.4
20260509182646 16 345 6.4 9.7 0.00 0.00 0.00 49 1016.2
20260509181146 17 295 3.2 9.7 0.00 0.00 0.00 44 1016.2
20260509175646 17 245 3.2 6.4 0.00 0.00 0.00 42 1016.2
20260509174145 17 16 6.4 9.7 0.00 0.00 0.00 46 1016.2
20260509172645 18 303 3.2 17.7 0.00 0.00 0.00 44 1016.0
20260509171145 18 259 3.2 9.7 0.00 0.00 0.00 40 1016.1
20260509165645 18 24 3.2 9.7 0.00 0.00 0.00 40 1016.1
20260509164144 18 29 3.2 6.4 0.00 0.00 0.00 42 1016.1
20260509162644 18 295 3.2 9.7 0.00 0.00 0.00 42 1016.1
20260509161143 18 342 3.2 9.7 0.00 0.00 0.00 43 1016.3
20260509155643 18 24 3.2 17.7 0.00 0.00 0.00 43 1016.4
20260509154143 17 344 6.4 12.9 0.00 0.00 0.00 43 1016.6
20260509152643 17 280 6.4 12.9 0.00 0.00 0.00 42 1016.8
20260509151142 18 255 6.4 17.7 0.00 0.00 0.00 44 1016.8
20260509145642 18 273 9.7 17.7 0.00 0.00 0.00 42 1016.8
20260509144141 17 215 6.4 12.9 0.00 0.00 0.00 39 1017.1
20260509142641 17 285 3.2 6.4 0.00 0.00 0.00 43 1017.1
20260509141140 17 273 3.2 12.9 0.00 0.00 0.00 45 1017.3
20260509135640 17 289 3.2 9.7 0.00 0.00 0.00 47 1017.4
20260509134140 16 180 6.4 12.9 0.00 0.00 0.00 48 1017.7
20260509132640 16 175 6.4 12.9 0.00 0.00 0.00 45 1017.8
20260509131139 16 299 3.2 6.4 0.00 0.00 0.00 50 1018.0
20260509125639 16 68 3.2 12.9 0.00 0.00 0.00 52 1018.2
20260509124138 15 129 6.4 12.9 0.00 0.00 0.00 51 1018.3